Weather in Kurskoe

Russia / Republic of Crimea     45°01′31″N   34°56′06″E
temp.,
°C
wind,
m/s
gust,
m/s
humid.,
%
clouds,
%
prec.,
mm/h
press.,
hPa
HPBL,
m
26 february, fri
fri2600:00+2ssw339274 0.0 103238
03:00+3w119086 0.0 103122
06:00+4sw128897 0.1 103024
09:00+5sw228999 0.3 102924
12:00+7sw2384100 0.1 1029181
15:00+10wsw257599 0.1 1027570
18:00+7ssw239044 0.0 102554
21:00+6ssw349735 0.0 102587
27 february, sat
sat2700:00+5ssw349527 0.0 102379
03:00+5ssw459624 0.0 1022110
06:00+5ssw339523 0.0 102079
09:00+6ssw349222 0.0 1020139
12:00+11sw356810 0.0 1018665
15:00+12wsw356516 0.0 1017940
18:00+9wnw478186 0.0 1016402
21:00+6n359590 0.3 1016368
28 february, sun
sun2800:00+4nnw5995100 0.8 1017541
03:00+3nw6989100 1.5 1017711
06:00+2nnw5107573 0.1 1018554
09:00+2nw699066 0.1 1019631
12:00+2nw699296 0.2 1020621
15:00+3nw588786 0.6 1021663
18:00+2nw488695 0.4 1022636
21:00+1nw589392 0.8 1024598
1 march, mon
mon100:000nw498973 0.1 1025362
03:00−1wnw389364 0.1 1025338
06:00−1nw379576 0.1 1025325
09:000nnw358786 0.2 1026493
12:00+2nw4572100 0.2 1027833
15:00+2n3577100 0.4 1027768
18:00+1n238796 0.3 1027417
21:00−1nnw129389 0.5 1029110
2 march, tue
tue200:00−1nw239159 0.1 103076
03:00−2nw248647 0.1 1030214
06:00−2nw259159 0.1 1031260
09:00−1nw358348 0.1 1032409
12:00+2nnw447149 0.1 1032784
15:00+2nw346568 0.1 10311007
18:00+1w357072 0.0 1030180
21:00−1w367946 0.0 1030179